Starlink 34869

operational
NORAD ID: 65371 Int'l Des: 2025-190 Owner: SPXS Country: US Constellation: starlink
LEOCIRCULAR

About Starlink 34869

Description loading...

Live Position

Loading 3D Globe...

Upcoming Passes

Altitude History

Altitude vs Time

uPlot chart will show altitude changes over time

Two-Line Element Set

1 65371U 25190W 26047.90725428 .00025070 00000-0 85592-3 0 9991
2 65371 53.1566 264.6869 0001219 92.4399 267.6741 15.30191679 26575
Epoch: Feb 16, 2026 • Age: 26 hours

Current Status

Altitude 494.2 km
Velocity 7.62 km/s
Sub-Earth Point -52.59°S, 33.7°E
Launch Date Aug 28, 2025
Age 0.4 years
Type internet

Technical Details

Classification Payload
Mass 575.00 kg
Dry Mass 530.00 kg
Total Mass 575.00 kg
Length 0.30 m
Diameter 4.10 m
Span 29.00 m
Shape Box + pan
Manufacturer SPXS
Bus Type Starlink V2MO
Phase Status In Orbit
Owner/State SPXS/US

Large Constellations

Loading constellations...